Miscellaneous Local Product
Issued by NWS Hastings, NE

Home | Current Version | Previous Version | Text Only | Print | Product List | Glossary Off
Versions: 1 2 3 4 5 6 7 8 9 10 11 12 13 14 15 16 17 18 19 20 21 22 23 24 25 26 27 28 29 30 31 32 33 34 35 36 37 38 39 40 41 42 43 44 45 46 47 48 49 50

503
AXUS43 KGID 270302
MISGRI

GID CWA HOURLY WEATHER ROUNDUP
NATIONAL WEATHER SERVICE HASTINGS NE
1000 PM CDT WED APR 26 2017

NOTE: "FAIR" INDICATES FEW OR NO CLOUDS BELOW 12,000 FEET WITH NO
SIGNIFICANT WEATHER AND/OR OBSTRUCTIONS TO VISIBILITY.

...SOUTH CENTRAL NEBRASKA...

CITY           SKY/WX    TMP DP  RH WIND       PRES   REMARKS
GRAND ISLAND   PTCLDY    33  28  81 N5        29.73R WCI  29
HASTINGS       CLEAR     35  28  75 NE5       29.74R WCI  31
KEARNEY        CLEAR     36  27  69 N3        29.73R
ORD            CLEAR     33  27  78 NW7       29.70R WCI  27
YORK           CLOUDY    41  30  65 N10       29.72R
AURORA         CLOUDY    40  29  64 N9        29.72R WCI  35
LEXINGTON      CLEAR     37  29  75 N6        29.71R WCI  32
HOLDREGE       CLEAR     36  28  72 N6        29.72R WCI  31
HEBRON         PTCLDY    41  31  67 N5        29.73R

...NEBRASKA PANHANDLE...

CITY           SKY/WX    TMP DP  RH WIND       PRES   REMARKS
CHADRON        CLEAR     35  30  82 NE6       29.73R WCI  30
ALLIANCE       CLOUDY    38  31  76 E8        29.70R WCI  32
SCOTTSBLUFF    LGT RAIN  46  39  76 SE7       29.70R
SIDNEY         MOCLDY    40  38  93 NE8       29.72R WCI  34

...WESTERN AND NORTH CENTRAL NEBRASKA...

CITY           SKY/WX    TMP DP  RH WIND       PRES   REMARKS
VALENTINE      CLEAR     32  25  75 W8        29.72R WCI  25
AINSWORTH      CLEAR     33  29  86 W7        29.71R WCI  27
ONEILL         CLEAR     35  28  78 N7        29.70R WCI  29
BROKEN BOW     CLEAR     32  26  78 N8        29.71R WCI  25
IMPERIAL       MOCLDY    43  31  62 E7        29.70R
NORTH PLATTE   CLEAR     36  29  75 CALM      29.72R
MCCOOK         CLEAR     40  28  62 E3        29.71R

...EASTERN NEBRASKA...

CITY           SKY/WX    TMP DP  RH WIND       PRES   REMARKS
NORFOLK        CLOUDY    38  30  73 N8        29.70R WCI  32
SO SIOUX CITY  CLOUDY    37  29  72 N20G25    29.70R WCI  27
TEKAMAH        CLOUDY    40  31  70 NW12      29.70R WCI  33
COLUMBUS       CLOUDY    41  28  60 NW7       29.71R
ALBION         CLEAR     33  28  82 CALM      29.70R
OMAHA EPPLEY   CLOUDY    42  31  64 NW13      29.69R
OFFUTT AFB     CLOUDY    41  31  67 NW12      29.70R
MILLARD        CLOUDY    43  33  68 NW8G22    29.71R
LINCOLN        CLOUDY    44  32  62 N8        29.73R
NEBRASKA CITY  CLOUDY    42  29  61 NW14      29.70R
BEATRICE       CLOUDY    44  34  68 N8        29.71R
FALLS CITY     CLOUDY    43  33  68 NW14G21   29.69R

...NORTHERN KANSAS...

CITY           SKY/WX    TMP DP  RH WIND       PRES   REMARKS
GOODLAND       CLEAR     42  30  62 S8        29.70R
HILL CITY      CLEAR     42  32  67 E3        29.72R
NORTON         CLEAR     39  27  60 CALM      29.71R
PHILLIPSBURG   CLEAR     39  32  75 NE3       29.73R
SMITH CENTER   CLEAR     36  28  75 NE7       29.73R WCI  30
HAYS           CLEAR     43  33  68 NE3       29.73R
RUSSELL        CLEAR     43  33  68 NE6       29.72R
CONCORDIA      CLEAR     41  32  70 N8        29.73R
SALINA         CLEAR     45  36  70 NW6       29.74R
TOPEKA         CLOUDY    46  37  71 NW9       29.70R



USA.gov is the U.S. government's official web portal to all federal, state and local government web resources and services.